Location: Newark
(34.0111°N, 88.4892°W)
Time: 22:07:43
(UTC+00:00)

Envisat - Visible Passes

Search period start: 19 February 2020 00:00
Search period end: 29 February 2020 00:00
Orbit: 764 x 766 km, 98.1° (Epoch: 19 February)

Date Brightness Start Highest point End Pass type
(mag) Time Alt. Az. Time Alt. Az. Time Alt. Az.
19 Feb 4.4 00:16:09 10° S 00:20:57 44° W 00:25:49 10° NNW visible
20 Feb 4.9 11:52:12 10° NNE 11:56:51 35° E 12:01:28 10° SSE visible
21 Feb 5.6 00:42:31 10° SSW 00:46:34 24° W 00:50:37 10° NW visible
21 Feb 6.3 11:17:01 10° ENE 11:19:51 15° E 11:22:38 10° SE visible
22 Feb 3.8 00:04:40 10° S 00:09:39 58° W 00:14:39 10° NNW visible
23 Feb 6.4 01:10:05 10° WSW 01:12:14 13° W 01:14:25 10° WNW visible
23 Feb 5.4 11:41:12 10° NE 11:45:30 27° E 11:49:47 10° SSE visible
24 Feb 5.1 00:30:45 10° SSW 00:35:12 31° W 00:39:41 10° NW visible
24 Feb 6.6 11:07:04 10° ENE 11:08:26 11° E 11:09:48 10° ESE visible
26 Feb 6.2 00:57:39 10° SW 01:00:51 17° W 01:04:03 10° NW visible
26 Feb 5.9 11:30:18 10° NE 11:34:09 21° E 11:37:57 10° SE visible
27 Feb 4.6 00:19:07 10° SSW 00:23:51 40° W 00:28:37 10° NNW visible
28 Feb 4.7 11:55:00 10° NNE 11:59:45 39° E 12:04:28 10° SSE visible
